Time,TemperatureF,DewpointF,PressureIn,WindDirection,WindDirectionDegrees,WindSpeedMPH,WindSpeedGustMPH,Humidity,HourlyPrecipIn,Conditions,Clouds,dailyrainin,SoftwareType,DateUTC
2013-11-04 00:02:00,53.0,40.3,29.76,SE,142,2.0,-999.0,62,0.00,,,0.00,Wunderground v.1.15,2013-11-04 06:02:00,
2013-11-04 00:07:00,52.9,40.6,29.76,South,187,2.0,-999.0,63,0.00,,,0.00,Wunderground v.1.15,2013-11-04 06:07:00,
2013-11-04 00:12:00,52.9,40.6,29.77,South,170,1.0,-999.0,63,0.00,,,0.00,Wunderground v.1.15,2013-11-04 06:12:00,
2013-11-04 00:17:00,52.8,40.1,29.76,South,171,4.0,-999.0,62,0.00,,,0.00,Wunderground v.1.15,2013-11-04 06:17:00,
2013-11-04 00:22:00,52.8,40.5,29.76,South,181,2.0,-999.0,63,0.00,,,0.00,Wunderground v.1.15,2013-11-04 06:22:00,
2013-11-04 00:27:00,52.7,40.9,29.76,South,170,2.0,-999.0,64,0.00,,,0.00,Wunderground v.1.15,2013-11-04 06:27:00,
2013-11-04 00:32:00,52.7,40.9,29.77,SSE,167,2.0,-999.0,64,0.00,,,0.00,Wunderground v.1.15,2013-11-04 06:32:00,
2013-11-04 00:37:00,52.6,40.8,29.76,ESE,110,0.0,-999.0,64,0.00,,,0.00,Wunderground v.1.15,2013-11-04 06:37:00,
2013-11-04 00:42:00,52.6,40.8,29.77,SSW,197,2.0,-999.0,64,0.00,,,0.00,Wunderground v.1.15,2013-11-04 06:42:00,
2013-11-04 00:47:00,52.6,40.8,29.77,SSE,160,4.0,-999.0,64,0.00,,,0.00,Wunderground v.1.15,2013-11-04 06:47:00,
2013-11-04 00:53:00,52.6,41.2,29.77,SE,141,1.0,-999.0,65,0.00,,,0.00,Wunderground v.1.15,2013-11-04 06:53:00,
2013-11-04 00:58:00,52.5,41.1,29.77,SSE,158,3.0,-999.0,65,0.00,,,0.00,Wunderground v.1.15,2013-11-04 06:58:00,
2013-11-04 01:03:00,52.5,41.5,29.77,SE,136,1.0,-999.0,66,0.00,,,0.00,Wunderground v.1.15,2013-11-04 07:03:00,
2013-11-04 01:08:00,52.5,41.5,29.77,ESE,113,0.0,-999.0,66,0.00,,,0.00,Wunderground v.1.15,2013-11-04 07:08:00,
2013-11-04 01:13:00,52.5,41.5,29.77,SE,145,2.0,-999.0,66,0.00,,,0.00,Wunderground v.1.15,2013-11-04 07:13:00,
2013-11-04 01:18:00,52.5,41.5,29.76,SSE,147,2.0,-999.0,66,0.00,,,0.00,Wunderground v.1.15,2013-11-04 07:18:00,
2013-11-04 01:24:00,52.5,41.9,29.76,South,170,2.0,-999.0,67,0.00,,,0.00,Wunderground v.1.15,2013-11-04 07:24:00,
2013-11-04 01:29:00,52.5,41.9,29.76,SSE,155,4.0,-999.0,67,0.00,,,0.00,Wunderground v.1.15,2013-11-04 07:29:00,
2013-11-04 01:34:00,52.5,41.5,29.76,SE,145,3.0,-999.0,66,0.00,,,0.00,Wunderground v.1.15,2013-11-04 07:34:00,
2013-11-04 01:39:00,52.6,41.9,29.76,SE,138,3.0,-999.0,67,0.00,,,0.00,Wunderground v.1.15,2013-11-04 07:39:00,
2013-11-04 01:44:00,52.5,41.5,29.76,SSE,148,3.0,-999.0,66,0.00,,,0.00,Wunderground v.1.15,2013-11-04 07:44:00,
2013-11-04 01:50:00,52.5,41.9,29.76,SE,142,0.0,-999.0,67,0.00,,,0.00,Wunderground v.1.15,2013-11-04 07:50:00,
2013-11-04 01:55:00,52.4,41.8,29.76,SE,131,2.0,-999.0,67,0.00,,,0.00,Wunderground v.1.15,2013-11-04 07:55:00,
2013-11-04 02:00:00,52.4,41.8,29.76,SE,146,0.0,-999.0,67,0.00,,,0.00,Wunderground v.1.15,2013-11-04 08:00:00,
2013-11-04 02:05:00,52.4,42.1,29.76,SSE,147,2.0,-999.0,68,0.00,,,0.00,Wunderground v.1.15,2013-11-04 08:05:00,
2013-11-04 02:10:00,52.4,42.1,29.76,ESE,102,0.0,-999.0,68,0.00,,,0.00,Wunderground v.1.15,2013-11-04 08:10:00,
2013-11-04 02:15:00,52.4,42.1,29.76,SSE,150,2.0,-999.0,68,0.00,,,0.00,Wunderground v.1.15,2013-11-04 08:15:00,
2013-11-04 02:20:00,52.4,42.1,29.76,SSE,155,1.0,-999.0,68,0.00,,,0.00,Wunderground v.1.15,2013-11-04 08:20:00,
2013-11-04 02:25:00,52.4,42.1,29.76,South,169,2.0,-999.0,68,0.00,,,0.00,Wunderground v.1.15,2013-11-04 08:25:00,
2013-11-04 02:30:00,52.5,42.2,29.76,SSE,158,3.0,-999.0,68,0.00,,,0.00,Wunderground v.1.15,2013-11-04 08:30:00,
2013-11-04 02:35:00,52.5,42.2,29.77,SSE,161,0.0,-999.0,68,0.00,,,0.00,Wunderground v.1.15,2013-11-04 08:35:00,
2013-11-04 02:40:00,52.4,42.1,29.77,SE,141,0.0,-999.0,68,0.00,,,0.00,Wunderground v.1.15,2013-11-04 08:40:00,
2013-11-04 02:45:00,52.3,42.4,29.77,SE,136,0.0,-999.0,69,0.00,,,0.00,Wunderground v.1.15,2013-11-04 08:45:00,
2013-11-04 02:50:00,52.1,41.9,29.77,SW,229,0.0,-999.0,68,0.00,,,0.00,Wunderground v.1.15,2013-11-04 08:50:00,
2013-11-04 02:55:00,52.0,41.8,29.77,SE,143,1.0,-999.0,68,0.00,,,0.00,Wunderground v.1.15,2013-11-04 08:55:00,
2013-11-04 03:00:00,51.8,41.9,29.77,SSE,149,0.0,-999.0,69,0.00,,,0.00,Wunderground v.1.15,2013-11-04 09:00:00,
2013-11-04 03:05:00,51.7,41.9,29.77,SE,129,0.0,-999.0,69,0.00,,,0.00,Wunderground v.1.15,2013-11-04 09:05:00,
2013-11-04 03:10:00,51.5,41.7,29.76,SE,145,0.0,-999.0,69,0.00,,,0.00,Wunderground v.1.15,2013-11-04 09:10:00,
2013-11-04 03:15:00,51.4,41.9,29.76,SSE,162,1.0,-999.0,70,0.00,,,0.00,Wunderground v.1.15,2013-11-04 09:15:00,
2013-11-04 03:20:00,51.2,42.1,29.77,SE,141,0.0,-999.0,71,0.00,,,0.00,Wunderground v.1.15,2013-11-04 09:20:00,
2013-11-04 03:25:00,51.1,41.7,29.77,SSE,149,0.0,-999.0,70,0.00,,,0.00,Wunderground v.1.15,2013-11-04 09:25:00,
2013-11-04 03:30:00,51.0,41.9,29.76,SSE,150,0.0,-999.0,71,0.00,,,0.00,Wunderground v.1.15,2013-11-04 09:30:00,
2013-11-04 03:35:00,50.9,42.2,29.76,SSE,153,0.0,-999.0,72,0.00,,,0.00,Wunderground v.1.15,2013-11-04 09:35:00,
2013-11-04 03:40:00,50.8,42.1,29.76,SE,142,0.0,-999.0,72,0.00,,,0.00,Wunderground v.1.15,2013-11-04 09:40:00,
2013-11-04 03:45:00,50.7,42.0,29.76,SSE,148,0.0,-999.0,72,0.00,,,0.00,Wunderground v.1.15,2013-11-04 09:45:00,
2013-11-04 03:50:00,50.6,41.9,29.76,SSE,165,1.0,-999.0,72,0.00,,,0.00,Wunderground v.1.15,2013-11-04 09:50:00,
2013-11-04 03:55:00,50.6,42.3,29.76,SE,143,0.0,-999.0,73,0.00,,,0.00,Wunderground v.1.15,2013-11-04 09:55:00,
2013-11-04 04:00:00,50.6,42.3,29.76,SSE,166,0.0,-999.0,73,0.00,,,0.00,Wunderground v.1.15,2013-11-04 10:00:00,
2013-11-04 04:05:00,50.6,42.3,29.76,SSE,160,2.0,-999.0,73,0.00,,,0.00,Wunderground v.1.15,2013-11-04 10:05:00,
2013-11-04 04:10:00,50.7,42.4,29.76,SSE,149,1.0,-999.0,73,0.00,,,0.00,Wunderground v.1.15,2013-11-04 10:10:00,
2013-11-04 04:15:00,50.7,42.4,29.76,SE,127,0.0,-999.0,73,0.00,,,0.00,Wunderground v.1.15,2013-11-04 10:15:00,
2013-11-04 04:20:00,50.7,42.4,29.76,ESE,113,0.0,-999.0,73,0.00,,,0.00,Wunderground v.1.15,2013-11-04 10:20:00,
2013-11-04 04:25:00,50.7,42.4,29.76,SE,143,1.0,-999.0,73,0.00,,,0.00,Wunderground v.1.15,2013-11-04 10:25:00,
2013-11-04 04:30:00,50.7,42.7,29.76,SE,126,0.0,-999.0,74,0.00,,,0.00,Wunderground v.1.15,2013-11-04 10:30:00,
2013-11-04 04:35:00,50.6,42.6,29.76,SSE,152,1.0,-999.0,74,0.00,,,0.00,Wunderground v.1.15,2013-11-04 10:35:00,
2013-11-04 04:40:00,50.6,42.6,29.76,SE,133,0.0,-999.0,74,0.00,,,0.00,Wunderground v.1.15,2013-11-04 10:40:00,
2013-11-04 04:45:00,50.6,42.6,29.76,SSE,150,0.0,-999.0,74,0.00,,,0.00,Wunderground v.1.15,2013-11-04 10:45:00,
2013-11-04 04:50:00,50.8,42.8,29.76,SE,141,1.0,-999.0,74,0.00,,,0.00,Wunderground v.1.15,2013-11-04 10:50:00,
2013-11-04 04:55:00,50.9,43.3,29.76,SE,140,0.0,-999.0,75,0.00,,,0.00,Wunderground v.1.15,2013-11-04 10:55:00,
2013-11-04 05:00:00,50.9,42.9,29.76,SSE,151,3.0,-999.0,74,0.00,,,0.00,Wunderground v.1.15,2013-11-04 11:00:00,
2013-11-04 05:05:00,51.0,43.0,29.76,SSE,166,5.0,-999.0,74,0.00,,,0.00,Wunderground v.1.15,2013-11-04 11:05:00,
2013-11-04 05:10:00,51.1,43.1,29.76,SE,136,0.0,-999.0,74,0.00,,,0.00,Wunderground v.1.15,2013-11-04 11:10:00,
2013-11-04 05:14:00,51.1,43.1,29.76,SSE,156,4.0,-999.0,74,0.00,,,0.00,Wunderground v.1.15,2013-11-04 11:14:00,
2013-11-04 05:19:00,51.0,43.4,29.76,SSE,158,6.0,-999.0,75,0.00,,,0.00,Wunderground v.1.15,2013-11-04 11:19:00,
2013-11-04 05:22:00,51.0,43.0,29.76,SE,133,0.0,-999.0,74,0.00,,,0.00,Wunderground v.1.15,2013-11-04 11:22:00,
2013-11-04 05:27:00,51.0,43.4,29.77,SE,146,1.0,-999.0,75,0.00,,,0.00,Wunderground v.1.15,2013-11-04 11:27:00,
2013-11-04 05:32:00,50.9,43.6,29.76,SE,128,0.0,-999.0,76,0.00,,,0.00,Wunderground v.1.15,2013-11-04 11:32:00,
2013-11-04 05:37:00,50.8,43.2,29.76,South,174,2.0,-999.0,75,0.00,,,0.00,Wunderground v.1.15,2013-11-04 11:37:00,
2013-11-04 05:42:00,50.7,43.4,29.76,SE,146,2.0,-999.0,76,0.00,,,0.00,Wunderground v.1.15,2013-11-04 11:42:00,
2013-11-04 05:47:00,50.6,43.3,29.76,SSE,162,2.0,-999.0,76,0.00,,,0.00,Wunderground v.1.15,2013-11-04 11:47:00,
2013-11-04 05:52:00,50.5,43.6,29.76,SE,135,0.0,-999.0,77,0.00,,,0.00,Wunderground v.1.15,2013-11-04 11:52:00,
2013-11-04 05:57:00,50.4,43.5,29.76,SSE,158,3.0,-999.0,77,0.00,,,0.00,Wunderground v.1.15,2013-11-04 11:57:00,
2013-11-04 06:02:00,50.4,43.5,29.76,SSE,165,3.0,-999.0,77,0.00,,,0.00,Wunderground v.1.15,2013-11-04 12:02:00,
2013-11-04 06:07:00,50.3,43.7,29.76,ESE,113,0.0,-999.0,78,0.00,,,0.00,Wunderground v.1.15,2013-11-04 12:07:00,
2013-11-04 06:12:00,50.1,43.2,29.76,SSE,149,0.0,-999.0,77,0.00,,,0.00,Wunderground v.1.15,2013-11-04 12:12:00,
2013-11-04 06:17:00,50.0,43.4,29.77,SE,136,2.0,-999.0,78,0.00,,,0.00,Wunderground v.1.15,2013-11-04 12:17:00,
2013-11-04 06:22:00,50.0,43.4,29.77,SSE,150,1.0,-999.0,78,0.00,,,0.00,Wunderground v.1.15,2013-11-04 12:22:00,
2013-11-04 06:27:00,50.0,43.7,29.77,SSE,159,3.0,-999.0,79,0.00,,,0.00,Wunderground v.1.15,2013-11-04 12:27:00,
2013-11-04 06:32:00,50.0,43.4,29.77,SE,128,1.0,-999.0,78,0.00,,,0.00,Wunderground v.1.15,2013-11-04 12:32:00,
2013-11-04 06:37:00,49.9,43.6,29.77,SSE,155,1.0,-999.0,79,0.00,,,0.00,Wunderground v.1.15,2013-11-04 12:37:00,
2013-11-04 06:42:00,49.9,43.6,29.78,SE,145,2.0,-999.0,79,0.00,,,0.00,Wunderground v.1.15,2013-11-04 12:42:00,
2013-11-04 06:47:00,49.7,43.5,29.78,SE,146,0.0,-999.0,79,0.00,,,0.00,Wunderground v.1.15,2013-11-04 12:47:00,
2013-11-04 06:52:00,49.6,43.7,29.78,South,180,0.0,-999.0,80,0.00,,,0.00,Wunderground v.1.15,2013-11-04 12:52:00,
2013-11-04 06:57:00,49.5,43.6,29.79,SSE,166,2.0,-999.0,80,0.00,,,0.00,Wunderground v.1.15,2013-11-04 12:57:00,
2013-11-04 07:02:00,49.4,43.5,29.79,South,172,2.0,-999.0,80,0.00,,,0.00,Wunderground v.1.15,2013-11-04 13:02:00,
2013-11-04 07:07:00,49.4,43.5,29.79,SSE,147,1.0,-999.0,80,0.00,,,0.00,Wunderground v.1.15,2013-11-04 13:07:00,
2013-11-04 07:12:00,49.4,43.5,29.79,SE,138,0.0,-999.0,80,0.00,,,0.00,Wunderground v.1.15,2013-11-04 13:12:00,
2013-11-04 07:17:00,49.4,43.5,29.79,SSE,153,0.0,-999.0,80,0.00,,,0.00,Wunderground v.1.15,2013-11-04 13:17:00,
2013-11-04 07:22:00,49.4,43.5,29.79,SE,132,0.0,-999.0,80,0.00,,,0.00,Wunderground v.1.15,2013-11-04 13:22:00,
2013-11-04 07:27:00,49.4,43.5,29.78,SSE,155,1.0,-999.0,80,0.00,,,0.00,Wunderground v.1.15,2013-11-04 13:27:00,
2013-11-04 07:32:00,49.4,43.8,29.79,SSE,148,0.0,-999.0,81,0.00,,,0.00,Wunderground v.1.15,2013-11-04 13:32:00,
2013-11-04 07:37:00,49.4,43.8,29.79,SE,128,0.0,-999.0,81,0.00,,,0.00,Wunderground v.1.15,2013-11-04 13:37:00,
2013-11-04 07:42:00,49.5,43.9,29.79,SE,146,2.0,-999.0,81,0.00,,,0.00,Wunderground v.1.15,2013-11-04 13:42:00,
2013-11-04 07:47:00,49.6,44.0,29.79,SSE,153,3.0,-999.0,81,0.00,,,0.00,Wunderground v.1.15,2013-11-04 13:47:00,
2013-11-04 07:52:00,49.7,44.1,29.80,SSE,158,4.0,-999.0,81,0.00,,,0.00,Wunderground v.1.15,2013-11-04 13:52:00,
2013-11-04 07:57:00,49.9,44.3,29.80,SSE,151,2.0,-999.0,81,0.00,,,0.00,Wunderground v.1.15,2013-11-04 13:57:00,
2013-11-04 08:02:00,50.1,44.5,29.81,SSE,165,5.0,-999.0,81,0.00,,,0.00,Wunderground v.1.15,2013-11-04 14:02:00,
2013-11-04 08:07:00,50.2,44.3,29.80,SSE,160,5.0,-999.0,80,0.00,,,0.00,Wunderground v.1.15,2013-11-04 14:07:00,
2013-11-04 08:12:00,50.2,44.3,29.81,SSE,166,2.0,-999.0,80,0.00,,,0.00,Wunderground v.1.15,2013-11-04 14:12:00,
2013-11-04 08:17:00,50.3,44.4,29.81,South,176,3.0,-999.0,80,0.00,,,0.00,Wunderground v.1.15,2013-11-04 14:17:00,
2013-11-04 08:22:00,50.4,44.5,29.81,South,177,7.0,-999.0,80,0.00,,,0.00,Wunderground v.1.15,2013-11-04 14:22:00,
2013-11-04 08:27:00,50.7,44.8,29.82,SSE,165,7.0,-999.0,80,0.00,,,0.00,Wunderground v.1.15,2013-11-04 14:27:00,
2013-11-04 08:32:00,50.8,44.9,29.82,South,172,5.0,-999.0,80,0.00,,,0.00,Wunderground v.1.15,2013-11-04 14:32:00,
2013-11-04 08:37:00,50.9,44.9,29.82,South,177,6.0,-999.0,80,0.00,,,0.00,Wunderground v.1.15,2013-11-04 14:37:00,
2013-11-04 08:42:00,51.0,44.7,29.83,SSE,167,5.0,-999.0,79,0.00,,,0.00,Wunderground v.1.15,2013-11-04 14:42:00,
2013-11-04 08:47:00,51.0,45.0,29.82,SSW,195,6.0,-999.0,80,0.00,,,0.00,Wunderground v.1.15,2013-11-04 14:47:00,
2013-11-04 08:52:00,51.1,44.8,29.83,South,169,7.0,-999.0,79,0.00,,,0.00,Wunderground v.1.15,2013-11-04 14:52:00,
2013-11-04 08:57:00,51.2,44.9,29.83,SSE,159,6.0,-999.0,79,0.00,,,0.00,Wunderground v.1.15,2013-11-04 14:57:00,
2013-11-04 09:02:00,51.3,45.0,29.83,SSE,162,5.0,-999.0,79,0.00,,,0.00,Wunderground v.1.15,2013-11-04 15:02:00,
2013-11-04 09:07:00,51.3,45.0,29.83,South,176,3.0,-999.0,79,0.00,,,0.00,Wunderground v.1.15,2013-11-04 15:07:00,
2013-11-04 09:12:00,51.4,44.8,29.84,South,170,4.0,-999.0,78,0.00,,,0.00,Wunderground v.1.15,2013-11-04 15:12:00,
2013-11-04 09:17:00,51.4,45.1,29.84,South,186,4.0,-999.0,79,0.00,,,0.00,Wunderground v.1.15,2013-11-04 15:17:00,
2013-11-04 09:22:00,51.5,44.9,29.85,SSE,148,5.0,-999.0,78,0.00,,,0.00,Wunderground v.1.15,2013-11-04 15:22:00,
2013-11-04 09:27:00,51.6,45.0,29.84,South,176,4.0,-999.0,78,0.00,,,0.00,Wunderground v.1.15,2013-11-04 15:27:00,
2013-11-04 09:32:00,51.6,45.0,29.85,SSE,161,5.0,-999.0,78,0.00,,,0.00,Wunderground v.1.15,2013-11-04 15:32:00,
2013-11-04 09:37:00,51.7,45.4,29.85,SSE,153,4.0,-999.0,79,0.00,,,0.00,Wunderground v.1.15,2013-11-04 15:37:00,
2013-11-04 09:42:00,51.8,45.5,29.85,SSW,208,2.0,-999.0,79,0.00,,,0.00,Wunderground v.1.15,2013-11-04 15:42:00,
2013-11-04 09:47:00,51.8,45.5,29.85,SSE,165,4.0,-999.0,79,0.00,,,0.00,Wunderground v.1.15,2013-11-04 15:47:00,
2013-11-04 09:52:00,52.0,45.7,29.85,SSE,148,2.0,-999.0,79,0.00,,,0.00,Wunderground v.1.15,2013-11-04 15:52:00,
2013-11-04 09:57:00,52.1,45.1,29.86,SSE,168,6.0,-999.0,77,0.00,,,0.00,Wunderground v.1.15,2013-11-04 15:57:00,
2013-11-04 10:02:00,52.3,45.3,29.86,West,278,7.0,-999.0,77,0.00,,,0.00,Wunderground v.1.15,2013-11-04 16:02:00,
2013-11-04 10:07:00,52.4,45.4,29.86,SSE,153,4.0,-999.0,77,0.00,,,0.00,Wunderground v.1.15,2013-11-04 16:07:00,
2013-11-04 10:12:00,52.5,45.5,29.86,SSE,155,5.0,-999.0,77,0.00,,,0.00,Wunderground v.1.15,2013-11-04 16:12:00,
2013-11-04 10:17:00,52.6,45.6,29.87,SSE,166,5.0,-999.0,77,0.00,,,0.00,Wunderground v.1.15,2013-11-04 16:17:00,
2013-11-04 10:22:00,52.6,45.2,29.87,WSW,239,4.0,-999.0,76,0.00,,,0.00,Wunderground v.1.15,2013-11-04 16:22:00,
2013-11-04 10:27:00,52.7,45.7,29.87,SSE,155,1.0,-999.0,77,0.00,,,0.00,Wunderground v.1.15,2013-11-04 16:27:00,
2013-11-04 10:32:00,52.8,45.8,29.87,SE,129,0.0,-999.0,77,0.00,,,0.00,Wunderground v.1.15,2013-11-04 16:32:00,
2013-11-04 10:37:00,53.0,45.6,29.88,SSE,153,1.0,-999.0,76,0.00,,,0.00,Wunderground v.1.15,2013-11-04 16:37:00,
2013-11-04 10:42:00,53.2,45.5,29.88,SSE,163,2.0,-999.0,75,0.00,,,0.00,Wunderground v.1.15,2013-11-04 16:42:00,
2013-11-04 10:47:00,53.5,45.8,29.88,SSW,201,1.0,-999.0,75,0.00,,,0.00,Wunderground v.1.15,2013-11-04 16:47:00,
2013-11-04 10:52:00,53.7,45.6,29.88,South,172,4.0,-999.0,74,0.00,,,0.00,Wunderground v.1.15,2013-11-04 16:52:00,
2013-11-04 10:57:00,53.9,46.2,29.89,WSW,243,0.0,-999.0,75,0.00,,,0.00,Wunderground v.1.15,2013-11-04 16:57:00,
2013-11-04 11:02:00,54.3,45.8,29.89,South,174,4.0,-999.0,73,0.00,,,0.00,Wunderground v.1.15,2013-11-04 17:02:00,
2013-11-04 11:07:00,54.5,46.0,29.89,SW,232,4.0,-999.0,73,0.00,,,0.00,Wunderground v.1.15,2013-11-04 17:07:00,
2013-11-04 11:12:00,54.8,45.9,29.89,South,184,0.0,-999.0,72,0.00,,,0.00,Wunderground v.1.15,2013-11-04 17:12:00,
2013-11-04 11:17:00,55.0,46.1,29.89,SE,124,0.0,-999.0,72,0.00,,,0.00,Wunderground v.1.15,2013-11-04 17:17:00,
2013-11-04 11:22:00,55.4,45.8,29.89,SSE,158,1.0,-999.0,70,0.00,,,0.00,Wunderground v.1.15,2013-11-04 17:22:00,
2013-11-04 11:27:00,55.6,45.6,29.89,SSE,148,4.0,-999.0,69,0.00,,,0.00,Wunderground v.1.15,2013-11-04 17:27:00,
2013-11-04 11:32:00,55.7,45.7,29.89,WSW,246,3.0,-999.0,69,0.00,,,0.00,Wunderground v.1.15,2013-11-04 17:32:00,
2013-11-04 11:37:00,56.0,45.2,29.89,WNW,285,0.0,-999.0,67,0.00,,,0.00,Wunderground v.1.15,2013-11-04 17:37:00,
2013-11-04 11:42:00,56.6,45.4,29.89,SSE,151,2.0,-999.0,66,0.00,,,0.00,Wunderground v.1.15,2013-11-04 17:42:00,
2013-11-04 11:47:00,56.9,46.1,29.90,West,263,0.0,-999.0,67,0.00,,,0.00,Wunderground v.1.15,2013-11-04 17:47:00,
2013-11-04 11:52:00,57.2,45.9,29.90,West,281,0.0,-999.0,66,0.00,,,0.00,Wunderground v.1.15,2013-11-04 17:52:00,
2013-11-04 11:57:00,57.0,45.3,29.90,West,271,1.0,-999.0,65,0.00,,,0.00,Wunderground v.1.15,2013-11-04 17:57:00,
2013-11-04 12:02:00,56.5,45.3,29.90,WNW,284,3.0,-999.0,66,0.00,,,0.00,Wunderground v.1.15,2013-11-04 18:02:00,
2013-11-04 12:07:00,56.0,45.2,29.90,West,278,1.0,-999.0,67,0.00,,,0.00,Wunderground v.1.15,2013-11-04 18:07:00,
2013-11-04 12:12:00,55.7,45.3,29.90,West,263,0.0,-999.0,68,0.00,,,0.00,Wunderground v.1.15,2013-11-04 18:12:00,
2013-11-04 12:17:00,56.0,45.2,29.90,West,276,0.0,-999.0,67,0.00,,,0.00,Wunderground v.1.15,2013-11-04 18:17:00,
2013-11-04 12:22:00,56.5,44.9,29.90,WNW,285,3.0,-999.0,65,0.00,,,0.00,Wunderground v.1.15,2013-11-04 18:22:00,
2013-11-04 12:27:00,56.2,44.6,29.91,NW,325,0.0,-999.0,65,0.00,,,0.00,Wunderground v.1.15,2013-11-04 18:27:00,
2013-11-04 12:32:00,56.2,44.6,29.91,WNW,288,3.0,-999.0,65,0.00,,,0.00,Wunderground v.1.15,2013-11-04 18:32:00,
2013-11-04 12:37:00,56.4,44.4,29.91,NNW,344,0.0,-999.0,64,0.00,,,0.00,Wunderground v.1.15,2013-11-04 18:37:00,
2013-11-04 12:42:00,56.8,44.3,29.91,WNW,295,0.0,-999.0,63,0.00,,,0.00,Wunderground v.1.15,2013-11-04 18:42:00,
2013-11-04 12:47:00,57.3,44.0,29.91,SW,222,0.0,-999.0,61,0.00,,,0.00,Wunderground v.1.15,2013-11-04 18:47:00,
2013-11-04 12:52:00,57.5,43.7,29.91,WNW,303,0.0,-999.0,60,0.00,,,0.00,Wunderground v.1.15,2013-11-04 18:52:00,
2013-11-04 12:57:00,57.6,43.4,29.91,West,281,0.0,-999.0,59,0.00,,,0.00,Wunderground v.1.15,2013-11-04 18:57:00,
2013-11-04 13:02:00,57.9,42.8,29.91,NNW,348,0.0,-999.0,57,0.00,,,0.00,Wunderground v.1.15,2013-11-04 19:02:00,
2013-11-04 13:07:00,57.9,42.8,29.91,WNW,297,0.0,-999.0,57,0.00,,,0.00,Wunderground v.1.15,2013-11-04 19:07:00,
2013-11-04 13:12:00,57.9,42.8,29.91,NW,316,0.0,-999.0,57,0.00,,,0.00,Wunderground v.1.15,2013-11-04 19:12:00,
2013-11-04 13:17:00,57.9,42.8,29.92,North,350,0.0,-999.0,57,0.00,,,0.00,Wunderground v.1.15,2013-11-04 19:17:00,
2013-11-04 13:22:00,58.0,41.4,29.92,NNW,342,0.0,-999.0,54,0.00,,,0.00,Wunderground v.1.15,2013-11-04 19:22:00,
2013-11-04 13:27:00,58.1,42.0,29.92,WSW,249,0.0,-999.0,55,0.00,,,0.00,Wunderground v.1.15,2013-11-04 19:27:00,
2013-11-04 13:32:00,58.3,42.2,29.92,NW,321,0.0,-999.0,55,0.00,,,0.00,Wunderground v.1.15,2013-11-04 19:32:00,
2013-11-04 13:37:00,58.4,42.3,29.92,NNW,340,0.0,-999.0,55,0.00,,,0.00,Wunderground v.1.15,2013-11-04 19:37:00,
2013-11-04 13:42:00,58.4,42.3,29.92,NW,317,0.0,-999.0,55,0.00,,,0.00,Wunderground v.1.15,2013-11-04 19:42:00,
2013-11-04 13:47:00,58.5,41.4,29.92,North,8,0.0,-999.0,53,0.00,,,0.00,Wunderground v.1.15,2013-11-04 19:47:00,
2013-11-04 13:52:00,58.4,41.3,29.92,NNW,339,0.0,-999.0,53,0.00,,,0.00,Wunderground v.1.15,2013-11-04 19:52:00,
2013-11-04 13:57:00,58.7,41.1,29.93,NW,318,0.0,-999.0,52,0.00,,,0.00,Wunderground v.1.15,2013-11-04 19:57:00,
2013-11-04 14:02:00,58.8,41.2,29.93,North,360,2.0,-999.0,52,0.00,,,0.00,Wunderground v.1.15,2013-11-04 20:02:00,
2013-11-04 14:07:00,58.6,40.5,29.93,NW,307,0.0,-999.0,51,0.00,,,0.00,Wunderground v.1.15,2013-11-04 20:07:00,
2013-11-04 14:12:00,58.7,40.6,29.93,NW,315,0.0,-999.0,51,0.00,,,0.00,Wunderground v.1.15,2013-11-04 20:12:00,
2013-11-04 14:17:00,58.6,40.5,29.93,NNW,345,0.0,-999.0,51,0.00,,,0.00,Wunderground v.1.15,2013-11-04 20:17:00,
2013-11-04 14:22:00,58.7,41.1,29.93,NNW,344,0.0,-999.0,52,0.00,,,0.00,Wunderground v.1.15,2013-11-04 20:22:00,
2013-11-04 14:27:00,58.9,40.3,29.94,NW,324,0.0,-999.0,50,0.00,,,0.00,Wunderground v.1.15,2013-11-04 20:27:00,
2013-11-04 14:32:00,58.8,40.7,29.94,NNW,327,0.0,-999.0,51,0.00,,,0.00,Wunderground v.1.15,2013-11-04 20:32:00,
2013-11-04 14:37:00,59.3,41.2,29.94,NW,315,0.0,-999.0,51,0.00,,,0.00,Wunderground v.1.15,2013-11-04 20:37:00,
2013-11-04 14:42:00,59.4,41.3,29.94,NW,311,0.0,-999.0,51,0.00,,,0.00,Wunderground v.1.15,2013-11-04 20:42:00,
2013-11-04 14:47:00,59.8,41.6,29.94,NW,312,0.0,-999.0,51,0.00,,,0.00,Wunderground v.1.15,2013-11-04 20:47:00,
2013-11-04 14:52:00,59.6,40.9,29.94,NNW,346,1.0,-999.0,50,0.00,,,0.00,Wunderground v.1.15,2013-11-04 20:52:00,
2013-11-04 14:57:00,59.2,41.6,29.95,NNW,346,0.0,-999.0,52,0.00,,,0.00,Wunderground v.1.15,2013-11-04 20:57:00,
2013-11-04 15:02:00,59.1,41.5,29.95,NW,322,0.0,-999.0,52,0.00,,,0.00,Wunderground v.1.15,2013-11-04 21:02:00,
2013-11-04 15:07:00,59.0,40.9,29.95,NNW,333,1.0,-999.0,51,0.00,,,0.00,Wunderground v.1.15,2013-11-04 21:07:00,
2013-11-04 15:12:00,58.6,40.5,29.95,North,4,0.0,-999.0,51,0.00,,,0.00,Wunderground v.1.15,2013-11-04 21:12:00,
2013-11-04 15:17:00,58.5,40.4,29.96,North,351,0.0,-999.0,51,0.00,,,0.00,Wunderground v.1.15,2013-11-04 21:17:00,
2013-11-04 15:22:00,58.3,41.2,29.96,NNW,339,0.0,-999.0,53,0.00,,,0.00,Wunderground v.1.15,2013-11-04 21:22:00,
2013-11-04 15:27:00,58.5,41.4,29.96,NW,326,0.0,-999.0,53,0.00,,,0.00,Wunderground v.1.15,2013-11-04 21:27:00,
2013-11-04 15:32:00,58.5,40.9,29.96,NW,326,0.0,-999.0,52,0.00,,,0.00,Wunderground v.1.15,2013-11-04 21:32:00,
2013-11-04 15:37:00,58.3,40.7,29.97,NNW,328,1.0,-999.0,52,0.00,,,0.00,Wunderground v.1.15,2013-11-04 21:37:00,
2013-11-04 15:42:00,57.9,40.9,29.97,NNW,327,0.0,-999.0,53,0.00,,,0.00,Wunderground v.1.15,2013-11-04 21:42:00,
2013-11-04 15:47:00,57.8,40.8,29.97,North,354,1.0,-999.0,53,0.00,,,0.00,Wunderground v.1.15,2013-11-04 21:47:00,
2013-11-04 15:52:00,57.7,40.2,29.97,WNW,300,0.0,-999.0,52,0.00,,,0.00,Wunderground v.1.15,2013-11-04 21:52:00,
2013-11-04 15:57:00,57.5,41.0,29.97,WNW,291,0.0,-999.0,54,0.00,,,0.00,Wunderground v.1.15,2013-11-04 21:57:00,
2013-11-04 16:02:00,57.6,40.6,29.97,NW,324,0.0,-999.0,53,0.00,,,0.00,Wunderground v.1.15,2013-11-04 22:02:00,
2013-11-04 16:07:00,57.6,40.6,29.97,NW,306,0.0,-999.0,53,0.00,,,0.00,Wunderground v.1.15,2013-11-04 22:07:00,
2013-11-04 16:12:00,57.3,40.8,29.97,NNW,330,0.0,-999.0,54,0.00,,,0.00,Wunderground v.1.15,2013-11-04 22:12:00,
2013-11-04 16:17:00,57.0,40.0,29.98,NW,316,0.0,-999.0,53,0.00,,,0.00,Wunderground v.1.15,2013-11-04 22:17:00,
2013-11-04 16:22:00,56.8,40.3,29.98,NW,306,0.0,-999.0,54,0.00,,,0.00,Wunderground v.1.15,2013-11-04 22:22:00,
2013-11-04 16:27:00,57.2,40.7,29.98,NW,308,0.0,-999.0,54,0.00,,,0.00,Wunderground v.1.15,2013-11-04 22:27:00,
2013-11-04 16:32:00,57.3,40.3,29.98,NW,306,0.0,-999.0,53,0.00,,,0.00,Wunderground v.1.15,2013-11-04 22:32:00,
2013-11-04 16:37:00,57.0,40.5,29.98,NW,308,0.0,-999.0,54,0.00,,,0.00,Wunderground v.1.15,2013-11-04 22:37:00,
2013-11-04 16:42:00,56.4,40.0,29.99,NW,306,0.0,-999.0,54,0.00,,,0.00,Wunderground v.1.15,2013-11-04 22:42:00,
2013-11-04 16:47:00,55.6,40.1,29.99,NW,307,0.0,-999.0,56,0.00,,,0.00,Wunderground v.1.15,2013-11-04 22:47:00,
2013-11-04 16:52:00,54.8,39.8,29.99,NW,308,0.0,-999.0,57,0.00,,,0.00,Wunderground v.1.15,2013-11-04 22:52:00,
2013-11-04 16:57:00,54.0,40.0,29.99,NW,308,0.0,-999.0,59,0.00,,,0.00,Wunderground v.1.15,2013-11-04 22:57:00,
2013-11-04 17:02:00,53.2,39.7,29.99,NW,308,0.0,-999.0,60,0.00,,,0.00,Wunderground v.1.15,2013-11-04 23:02:00,
2013-11-04 17:07:00,52.5,39.8,29.99,NW,307,0.0,-999.0,62,0.00,,,0.00,Wunderground v.1.15,2013-11-04 23:07:00,
2013-11-04 17:12:00,51.8,39.6,29.99,NW,308,0.0,-999.0,63,0.00,,,0.00,Wunderground v.1.15,2013-11-04 23:12:00,
2013-11-04 17:17:00,51.3,39.9,30.00,NW,309,0.0,-999.0,65,0.00,,,0.00,Wunderground v.1.15,2013-11-04 23:17:00,
2013-11-04 17:22:00,50.6,39.7,30.00,NW,309,0.0,-999.0,66,0.00,,,0.00,Wunderground v.1.15,2013-11-04 23:22:00,
2013-11-04 17:27:00,50.0,39.5,30.00,NW,309,0.0,-999.0,67,0.00,,,0.00,Wunderground v.1.15,2013-11-04 23:27:00,
2013-11-04 17:32:00,49.4,39.7,30.00,NW,309,0.0,-999.0,69,0.00,,,0.00,Wunderground v.1.15,2013-11-04 23:32:00,
2013-11-04 17:37:00,48.8,39.4,30.01,NW,309,0.0,-999.0,70,0.00,,,0.00,Wunderground v.1.15,2013-11-04 23:37:00,
2013-11-04 17:42:00,48.3,39.0,30.01,NW,309,0.0,-999.0,70,0.00,,,0.00,Wunderground v.1.15,2013-11-04 23:42:00,
2013-11-04 17:47:00,47.6,38.7,30.01,NW,309,0.0,-999.0,71,0.00,,,0.00,Wunderground v.1.15,2013-11-04 23:47:00,
2013-11-04 17:52:00,47.0,38.8,30.02,NW,309,0.0,-999.0,73,0.00,,,0.00,Wunderground v.1.15,2013-11-04 23:52:00,
2013-11-04 17:57:00,46.4,38.6,30.02,NW,309,0.0,-999.0,74,0.00,,,0.00,Wunderground v.1.15,2013-11-04 23:57:00,
2013-11-04 18:02:00,46.0,38.5,30.02,NW,309,0.0,-999.0,75,0.00,,,0.00,Wunderground v.1.15,2013-11-05 00:02:00,
2013-11-04 18:07:00,45.5,38.4,30.02,NW,309,0.0,-999.0,76,0.00,,,0.00,Wunderground v.1.15,2013-11-05 00:07:00,
2013-11-04 18:12:00,45.1,38.3,30.02,NW,307,0.0,-999.0,77,0.00,,,0.00,Wunderground v.1.15,2013-11-05 00:12:00,
2013-11-04 18:17:00,44.6,38.2,30.02,NW,309,0.0,-999.0,78,0.00,,,0.00,Wunderground v.1.15,2013-11-05 00:17:00,
2013-11-04 18:22:00,44.1,37.7,30.02,NW,309,0.0,-999.0,78,0.00,,,0.00,Wunderground v.1.15,2013-11-05 00:22:00,
2013-11-04 18:27:00,43.8,37.7,30.03,NW,309,0.0,-999.0,79,0.00,,,0.00,Wunderground v.1.15,2013-11-05 00:27:00,
2013-11-04 18:32:00,43.5,37.7,30.03,NW,309,0.0,-999.0,80,0.00,,,0.00,Wunderground v.1.15,2013-11-05 00:32:00,
2013-11-04 18:37:00,43.2,37.4,30.03,NW,307,0.0,-999.0,80,0.00,,,0.00,Wunderground v.1.15,2013-11-05 00:37:00,
2013-11-04 18:42:00,43.0,37.6,30.04,NW,306,0.0,-999.0,81,0.00,,,0.00,Wunderground v.1.15,2013-11-05 00:42:00,
2013-11-04 18:47:00,42.8,37.7,30.04,NW,308,0.0,-999.0,82,0.00,,,0.00,Wunderground v.1.15,2013-11-05 00:47:00,
2013-11-04 18:52:00,42.5,37.4,30.04,NW,306,0.0,-999.0,82,0.00,,,0.00,Wunderground v.1.15,2013-11-05 00:52:00,
2013-11-04 18:57:00,42.4,37.6,30.05,NW,308,0.0,-999.0,83,0.00,,,0.00,Wunderground v.1.15,2013-11-05 00:57:00,
2013-11-04 19:02:00,42.2,37.4,30.05,NW,308,0.0,-999.0,83,0.00,,,0.00,Wunderground v.1.15,2013-11-05 01:02:00,
2013-11-04 19:07:00,42.0,37.5,30.05,NW,308,0.0,-999.0,84,0.00,,,0.00,Wunderground v.1.15,2013-11-05 01:07:00,
2013-11-04 19:12:00,41.7,37.2,30.05,NW,308,0.0,-999.0,84,0.00,,,0.00,Wunderground v.1.15,2013-11-05 01:12:00,
2013-11-04 19:17:00,41.6,37.7,30.05,NW,308,0.0,-999.0,86,0.00,,,0.00,Wunderground v.1.15,2013-11-05 01:17:00,
2013-11-04 19:22:00,41.5,37.9,30.05,NW,308,0.0,-999.0,87,0.00,,,0.00,Wunderground v.1.15,2013-11-05 01:22:00,
2013-11-04 19:27:00,41.3,37.7,30.05,NW,308,0.0,-999.0,87,0.00,,,0.00,Wunderground v.1.15,2013-11-05 01:27:00,
2013-11-04 19:32:00,41.1,37.5,30.05,NW,308,0.0,-999.0,87,0.00,,,0.00,Wunderground v.1.15,2013-11-05 01:32:00,
2013-11-04 19:37:00,40.8,36.9,30.05,NW,307,0.0,-999.0,86,0.00,,,0.00,Wunderground v.1.15,2013-11-05 01:37:00,
2013-11-04 19:42:00,40.5,36.9,30.06,NW,308,0.0,-999.0,87,0.00,,,0.00,Wunderground v.1.15,2013-11-05 01:42:00,
2013-11-04 19:47:00,40.3,36.7,30.06,NW,308,0.0,-999.0,87,0.00,,,0.00,Wunderground v.1.15,2013-11-05 01:47:00,
2013-11-04 19:52:00,40.1,36.8,30.06,NW,307,0.0,-999.0,88,0.00,,,0.00,Wunderground v.1.15,2013-11-05 01:52:00,
2013-11-04 19:57:00,39.9,36.6,30.06,NW,307,0.0,-999.0,88,0.00,,,0.00,Wunderground v.1.15,2013-11-05 01:57:00,
2013-11-04 20:02:00,39.7,36.4,30.06,NW,308,0.0,-999.0,88,0.00,,,0.00,Wunderground v.1.15,2013-11-05 02:02:00,
2013-11-04 20:07:00,39.5,36.5,30.07,NW,307,0.0,-999.0,89,0.00,,,0.00,Wunderground v.1.15,2013-11-05 02:07:00,
2013-11-04 20:12:00,39.4,36.7,30.07,NW,308,0.0,-999.0,90,0.00,,,0.00,Wunderground v.1.15,2013-11-05 02:12:00,
2013-11-04 20:17:00,39.2,36.2,30.07,NW,307,0.0,-999.0,89,0.00,,,0.00,Wunderground v.1.15,2013-11-05 02:17:00,
2013-11-04 20:22:00,39.0,36.3,30.07,NW,307,0.0,-999.0,90,0.00,,,0.00,Wunderground v.1.15,2013-11-05 02:22:00,
2013-11-04 20:27:00,38.8,36.1,30.07,NW,308,0.0,-999.0,90,0.00,,,0.00,Wunderground v.1.15,2013-11-05 02:27:00,
2013-11-04 20:32:00,38.6,35.9,30.07,NW,308,0.0,-999.0,90,0.00,,,0.00,Wunderground v.1.15,2013-11-05 02:32:00,
2013-11-04 20:37:00,38.8,36.4,30.07,NW,308,0.0,-999.0,91,0.00,,,0.00,Wunderground v.1.15,2013-11-05 02:37:00,
2013-11-04 20:42:00,39.4,37.0,30.07,NW,308,0.0,-999.0,91,0.00,,,0.00,Wunderground v.1.15,2013-11-05 02:42:00,
2013-11-04 20:47:00,39.8,37.1,30.07,NW,308,0.0,-999.0,90,0.00,,,0.00,Wunderground v.1.15,2013-11-05 02:47:00,
2013-11-04 20:52:00,40.0,37.0,30.07,NW,308,0.0,-999.0,89,0.00,,,0.00,Wunderground v.1.15,2013-11-05 02:52:00,
2013-11-04 20:57:00,40.0,36.7,30.07,NW,307,0.0,-999.0,88,0.00,,,0.00,Wunderground v.1.15,2013-11-05 02:57:00,
2013-11-04 21:02:00,39.9,36.6,30.08,NW,308,0.0,-999.0,88,0.00,,,0.00,Wunderground v.1.15,2013-11-05 03:02:00,
2013-11-04 21:07:00,39.7,36.1,30.08,NW,308,0.0,-999.0,87,0.00,,,0.00,Wunderground v.1.15,2013-11-05 03:07:00,
2013-11-04 21:12:00,39.5,36.2,30.08,NW,308,0.0,-999.0,88,0.00,,,0.00,Wunderground v.1.15,2013-11-05 03:12:00,
2013-11-04 21:17:00,39.5,36.2,30.08,NW,308,0.0,-999.0,88,0.00,,,0.00,Wunderground v.1.15,2013-11-05 03:17:00,
2013-11-04 21:22:00,39.5,36.5,30.08,NW,308,0.0,-999.0,89,0.00,,,0.00,Wunderground v.1.15,2013-11-05 03:22:00,
2013-11-04 21:27:00,39.6,36.6,30.08,NW,308,0.0,-999.0,89,0.00,,,0.00,Wunderground v.1.15,2013-11-05 03:27:00,
2013-11-04 21:32:00,39.9,37.2,30.08,NW,308,0.0,-999.0,90,0.00,,,0.00,Wunderground v.1.15,2013-11-05 03:32:00,
2013-11-04 21:37:00,40.1,37.4,30.08,NW,308,0.0,-999.0,90,0.00,,,0.00,Wunderground v.1.15,2013-11-05 03:37:00,
2013-11-04 21:42:00,40.4,37.7,30.09,NW,307,0.0,-999.0,90,0.00,,,0.00,Wunderground v.1.15,2013-11-05 03:42:00,
2013-11-04 21:47:00,41.1,39.0,30.09,SSE,167,0.0,-999.0,92,0.00,,,0.00,Wunderground v.1.15,2013-11-05 03:47:00,
2013-11-04 21:52:00,41.6,39.2,30.09,SSE,168,0.0,-999.0,91,0.00,,,0.00,Wunderground v.1.15,2013-11-05 03:52:00,
2013-11-04 21:57:00,41.9,39.2,30.09,SSE,167,0.0,-999.0,90,0.00,,,0.00,Wunderground v.1.15,2013-11-05 03:57:00,
2013-11-04 22:02:00,42.1,39.4,30.09,SSE,167,0.0,-999.0,90,0.00,,,0.00,Wunderground v.1.15,2013-11-05 04:02:00,
2013-11-04 22:07:00,42.2,39.5,30.09,SSE,167,0.0,-999.0,90,0.00,,,0.00,Wunderground v.1.15,2013-11-05 04:07:00,
2013-11-04 22:12:00,42.5,39.8,30.09,SSE,168,0.0,-999.0,90,0.00,,,0.00,Wunderground v.1.15,2013-11-05 04:12:00,
2013-11-04 22:17:00,42.7,39.7,30.09,South,169,0.0,-999.0,89,0.00,,,0.00,Wunderground v.1.15,2013-11-05 04:17:00,
2013-11-04 22:22:00,42.9,39.9,30.10,South,169,0.0,-999.0,89,0.00,,,0.00,Wunderground v.1.15,2013-11-05 04:22:00,
2013-11-04 22:27:00,43.0,40.0,30.10,South,169,0.0,-999.0,89,0.00,,,0.00,Wunderground v.1.15,2013-11-05 04:27:00,
2013-11-04 22:32:00,43.0,39.7,30.10,South,169,0.0,-999.0,88,0.00,,,0.00,Wunderground v.1.15,2013-11-05 04:32:00,
2013-11-04 22:37:00,43.1,39.8,30.10,South,169,0.0,-999.0,88,0.00,,,0.00,Wunderground v.1.15,2013-11-05 04:37:00,
2013-11-04 22:42:00,43.2,39.9,30.09,South,169,0.0,-999.0,88,0.00,,,0.00,Wunderground v.1.15,2013-11-05 04:42:00,
2013-11-04 22:47:00,43.3,40.3,30.09,South,169,0.0,-999.0,89,0.00,,,0.00,Wunderground v.1.15,2013-11-05 04:47:00,
2013-11-04 22:52:00,43.4,40.1,30.09,South,169,0.0,-999.0,88,0.00,,,0.00,Wunderground v.1.15,2013-11-05 04:52:00,
2013-11-04 22:57:00,43.5,40.2,30.09,South,169,0.0,-999.0,88,0.00,,,0.00,Wunderground v.1.15,2013-11-05 04:57:00,
2013-11-04 23:01:00,43.6,40.3,30.09,South,169,0.0,-999.0,88,0.00,,,0.00,Wunderground v.1.15,2013-11-05 05:01:00,
2013-11-04 23:06:00,43.7,40.1,30.09,South,169,0.0,-999.0,87,0.00,,,0.00,Wunderground v.1.15,2013-11-05 05:06:00,
2013-11-04 23:11:00,43.8,40.2,30.09,SSE,168,0.0,-999.0,87,0.00,,,0.00,Wunderground v.1.15,2013-11-05 05:11:00,
2013-11-04 23:16:00,43.9,40.3,30.09,SSE,168,0.0,-999.0,87,0.00,,,0.00,Wunderground v.1.15,2013-11-05 05:16:00,
2013-11-04 23:21:00,44.0,40.1,30.09,SSE,167,0.0,-999.0,86,0.00,,,0.00,Wunderground v.1.15,2013-11-05 05:21:00,
2013-11-04 23:26:00,44.1,40.2,30.09,SSE,168,0.0,-999.0,86,0.00,,,0.00,Wunderground v.1.15,2013-11-05 05:26:00,
2013-11-04 23:31:00,44.2,40.3,30.09,SSE,168,0.0,-999.0,86,0.00,,,0.00,Wunderground v.1.15,2013-11-05 05:31:00,
2013-11-04 23:36:00,44.3,40.1,30.08,SSE,167,0.0,-999.0,85,0.00,,,0.00,Wunderground v.1.15,2013-11-05 05:36:00,
2013-11-04 23:41:00,44.3,40.1,30.08,SSE,168,0.0,-999.0,85,0.00,,,0.00,Wunderground v.1.15,2013-11-05 05:41:00,
2013-11-04 23:46:00,44.3,40.1,30.08,North,356,0.0,-999.0,85,0.00,,,0.00,Wunderground v.1.15,2013-11-05 05:46:00,
2013-11-04 23:51:00,44.4,39.9,30.08,North,355,0.0,-999.0,84,0.00,,,0.00,Wunderground v.1.15,2013-11-05 05:51:00,
2013-11-04 23:56:00,44.4,39.9,30.08,North,356,0.0,-999.0,84,0.00,,,0.00,Wunderground v.1.15,2013-11-05 05:56:00,